Regional Weather Roundup
Issued by NWS

Home | Current Version | Previous Version | Text Only | Print | Product List | Glossary On
Versions: 1 2 3 4 5 6 7 8 9 10 11 12 13 14 15 16 17 18 19 20 21 22 23 24 25 26 27 28 29 30 31 32 33 34 35 36 37 38 39 40 41 42 43 44 45 46 47 48 49 50
000
ASUS43 KMKX 012121
RWRWI

WISCONSIN REGIONAL WEATHER ROUNDUP
NATIONAL WEATHER SERVICE MILWAUKEE/SULLIVAN WI
400 PM CDT MON JUN 01 2015

NOTE: "FAIR" INDICATES FEW OR NO CLOUDS BELOW 12,000 FEET WITH NO
SIGNIFICANT WEATHER AND/OR OBSTRUCTIONS TO VISIBILITY.

WIZ001-002-006>008-014>016-023>028-012200-
NORTHWEST WISCONSIN

CITY           SKY/WX    TMP DP  RH WIND       PRES   REMARKS
SUPERIOR ARPT  SUNNY     50  35  58 NE10      30.23F
ASHLAND        SUNNY     60  38  43 NE13      30.23F
HAYWARD        MOSUNNY   68  31  25 SE9       30.19F
SIREN          SUNNY     68  32  26 S10G18    30.19F
CUMBERLAND     SUNNY     63  37  39 SE9       30.20F
RICE LAKE      SUNNY     67  38  34 SE10      30.21F
CHETEK         SUNNY     67  44  43 SE9G17    30.20F
LADYSMITH      MOSUNNY   67  41  38 S8        30.23F
EAU CLAIRE     SUNNY     69  40  34 SE13      30.19F
MENOMONIE      SUNNY     68  40  36 E5        30.20F
NEW RICHMOND   SUNNY     67  40  36 S12G18    30.19F
OSCEOLA        SUNNY     68  39  35 SE12      30.21F
$$

WIZ003>005-009-010-017-018-012200-
NORTH CENTRAL WISCONSIN

CITY           SKY/WX    TMP DP  RH WIND       PRES   REMARKS
MANITOWISH WTR SUNNY     65  32  29 S7        30.22F
ARBOR VITAE    SUNNY     66  26  22 SE8       30.22F
WOODRUFF       SUNNY     66  26  22 SE8       30.22F
RHINELANDER    SUNNY     66  31  27 VRB6      30.24F
EAGLE RIVER    SUNNY     65  23  20 SE6       30.23F
LAND O LAKES   SUNNY     67  23  18 E9        30.23F
PHILLIPS       SUNNY     66  36  33 S9        30.21F
TOMAHAWK       SUNNY     65  35  31 CALM      30.24F
MEDFORD        SUNNY     63  43  47 SE7       30.23F
MERRILL        SUNNY     65  32  29 S6        30.25F
$$

WIZ029-030-035-036-043>047-012200-
CENTRAL WISCONSIN

CITY           SKY/WX    TMP DP  RH WIND       PRES   REMARKS
WAUSAU         SUNNY     65  36  34 E8        30.22F
MOSINEE        SUNNY     63  36  36 SE5       30.25F
MARSHFIELD     SUNNY     66  38  35 E10       30.23F
STEVENS POINT  SUNNY     63  34  33 E10       30.25F
WAUPACA        SUNNY     68  34  28 E9        30.25F
WAUTOMA        SUNNY     65  33  30 E8        30.25F
WISC RAPIDS    SUNNY     67  28  23 SE10G17   30.24F
CAMP DOUGLAS   MOSUNNY   68  36  30 SE9       30.21F
$$

WIZ011>013-019>022-031-037>040-048>050-012200-
NORTHEAST WISCONSIN

CITY           SKY/WX    TMP DP  RH WIND       PRES   REMARKS
ANTIGO         SUNNY     62  36  36 E6        30.25F
SHAWANO        SUNNY     66  36  33 E8        30.26F
OCONTO         SUNNY     62  37  40 E8        30.27F
STURGEON BAY   SUNNY     61  36  39 E9        30.29F
GREEN BAY      SUNNY     64  40  41 NE8       30.26F
MANITOWOC      SUNNY     59  37  44 E12       30.27S
APPLETON       MOSUNNY   63  30  29 E9        30.26F
CLINTONVILLE   SUNNY     64  34  32 E8        30.25F
OSHKOSH        SUNNY     64  36  35 NE10      30.24F
$$

WIZ032>034-041-042-053>061-012200-
SOUTHWEST WISCONSIN

CITY           SKY/WX    TMP DP  RH WIND       PRES   REMARKS
LA CROSSE      SUNNY     71  39  31 SE10      30.19F
SPARTA         SUNNY     68  31  24 SE8       30.22S
VIROQUA        SUNNY     68  32  26 SE7G18    30.21F
BOSCOBEL       SUNNY     71  38  29 VRB6      30.20F
PRAIRIE DU CHI SUNNY     69  31  24 E9        30.18F
PLATTEVILLE    SUNNY     67  40  36 E12       30.19F
$$

WIZ056-057-062-063-064-067-068-012200-
SOUTH CENTRAL WISCONSIN

CITY           SKY/WX    TMP DP  RH WIND       PRES   REMARKS
REEDSBURG      SUNNY     66  38  36 E7        30.21F
BARABOO/DELLS  SUNNY     64  35  33 E13       30.22F
LONE ROCK      SUNNY     69  36  29 E13G22    30.20F
MINERAL POINT  SUNNY     68  32  26 E12       30.20F
MADISON        MOSUNNY   66  32  28 NE15      30.21F
MIDDLETON      SUNNY     67  32  27 E10G18    30.22S
WATERTOWN      SUNNY    N/A N/A N/A E12G17    30.22F
MONROE         SUNNY     66  41  39 E10G16    30.19F
JANESVILLE     SUNNY     68  37  32 E12G17    30.20F
$$

WIZ051-052-058>065-066-070>072-012200-
SOUTHEAST WISCONSIN

CITY           SKY/WX    TMP DP  RH WIND       PRES   REMARKS
MILWAUKEE      MOSUNNY   56  35  45 N14       30.25F
WAUKESHA       SUNNY     59  32  36 NE8       30.25F
MILWAUKEE/TIMM SUNNY     55  27  33 N9        30.26S
RACINE         SUNNY     55  37  50 N14       30.26F
BURLINGTON     SUNNY     59  35  40 E13G21    30.23F
KENOSHA        SUNNY     60  40  47 NE14      30.23F
FOND DU LAC    SUNNY     65  31  28 E7        30.24F
SHEBOYGAN      SUNNY     59  37  44 NE14      30.26F
WEST BEND      SUNNY     61  32  33 NE10G17   30.24F
JUNEAU         SUNNY     63  33  32 E9        30.24F
$$

LSZ147-162-012200-
LAKE SUPERIOR

STATION/POSITION TIME  TEMP    WIND        PRES    WAVE
                       AIR SEA DIR/SP/G            HT/PER
                 (UTC) (F)     (DEG/KT/KT) (MB)    (FT/S)
W MID LAKE BUOY  2050   39 37   40/  8/ 10   N/A     0
DEVILS ISLAND    2100   42      70/ 11/ 12   N/A
PORT WING        2000   43      30/ 18/ 22   N/A
SAXON HARBOR     2000   50      40/  9/ 10   N/A
$$

LMZ867-665-643>646-012200-
LAKE MICHIGAN

STATION/POSITION TIME  TEMP    WIND        PRES    WAVE
                       AIR SEA DIR/SP/G            HT/PER
                 (UTC) (F)     (DEG/KT/KT) (MB)    (FT/S)
CHAMBERS ISLAND  2000   56     360/  5/  6   N/A
N MID LAKE BUOY  2050   42 37  330/  4/  6   N/A     0
NORTHPORT PIER   2000   50     130/  6/  7   N/A
SISTER BAY       2048   65     110/  9/ 12   N/A
ALGOMA LAKESHORE 2024           70/ 12/ 13   N/A
KEWAUNEE LAKESHO 2100   52      30/  6/ 12   N/A
SHEBOYGAN LAKESH 2100   47      10/  9/  9   N/A
PORT WASHINGTON  2000   51      40/  7/ 10   N/A
ATWATER BUOY     2100   46     350/  8/ 10   N/A
MILWAUKEE LAKESH 2100   50      30/ 12/ 14   N/A
S MID LAKE BUOY  2050   42 39  340/ 10/ 12   N/A     1/ 3
KENOSHA   LAKESH 2100   49      20/ 13/ 15   N/A
$$

TC  - TEMPERATURE IN CELSIUS
VSB - VISIBILITY IN STATUTE MILES
WCI - WIND CHILL INDEX
HX  - HEAT INDEX




USA.gov is the U.S. government's official web portal to all federal, state and local government web resources and services.